Location: Rimrock Meadows
(47.4808°N, 119.7286°W)
Time: 18:52:07
(UTC-07:00)

Daily predictions for brighter satellites

Satellite Brightness Start Highest point End
(mag) Time Altitude Azimuth Time Altitude Azimuth Time Altitude Azimuth
Cosmos 1674 2.8 21:35:08 10° S 21:38:58 82° W 21:42:52 10° N
COSMOS 2455 4.4 21:41:16 10° NNW 21:46:18 26° NE 21:51:19 10° E
Tiangong 1 2.9 21:45:19 10° S 21:47:03 14° SSE 21:48:48 10° ESE
Cosmos 1300 2.8 21:44:51 10° N 21:48:41 60° ENE 21:52:29 10° SSE
SL-08 RB Rocket 4.3 21:45:24 10° SE 21:49:37 43° ENE 21:53:54 10° N
AVUM R/B 4.4 21:47:34 10° SW 21:49:52 37° NW 21:52:23 10° NNE
CZ-4B R/B 3.9 21:44:46 10° NNE 21:49:52 47° E 21:54:52 10° S
Cosmos 1805 Rocket 3.8 21:45:35 10° S 21:49:55 54° E 21:54:16 10° NNE
YAOGAN 6 2.6 21:47:54 10° SSE 21:51:32 74° ENE 21:55:08 10° N
Cosmos 1680 Rocket 4.2 21:48:11 10° NNW 21:53:17 53° WSW 21:58:24 10° S
H-2A R/B 3.1 21:49:05 10° SE 21:53:52 34° ENE 21:58:45 10° N
Cosmos 2266 Rocket 4.3 21:50:12 10° SSW 21:56:28 72° W 22:02:40 10° N
Cosmos 2227 Rocket 3.6 21:53:40 10° SE 21:57:37 20° E 22:01:36 10° NE
Meteor 1-11 4.4 21:52:35 10° S 21:58:12 58° E 22:03:48 10° NNE
Cosmos 2315 Rocket 4.1 21:52:52 10° N 21:59:08 83° W 22:05:19 10° S
Cosmos 1707 Rocket 3.6 22:00:57 10° N 22:05:20 89° WSW 22:09:43 10° S
SPOT 1/Viking Rocket 3.6 22:00:56 10° SSE 22:06:05 88° ENE 22:11:18 10° NNW
H-2A R/B 3.9 22:02:36 10° SSW 22:06:36 30° W 22:10:37 10° NW
Cosmos 2333 Rocket 2.7 22:02:27 10° NNW 22:08:05 52° ENE 22:13:18 12° SE
SL-16 R/B 3.8 22:03:34 10° N 22:08:17 26° NE 22:12:58 10° ESE
Cosmos 1898 Rocket 3.7 22:04:34 10° S 22:09:33 50° ESE 22:14:35 10° NNE
Cosmos 1455 3.5 22:07:51 10° NNE 22:11:09 27° ENE 22:13:51 13° SE
Cosmos 1666 Rocket 3.6 22:08:06 10° S 22:12:28 68° E 22:16:54 10° NNE
SeaSat 1 4.5 22:11:17 10° E 22:14:39 19° NE 22:18:03 10° N
Cosmos 2150 Rocket 4.2 22:11:51 10° S 22:17:12 60° ESE 22:22:36 10° NNE
SPOT 5 4.0 22:13:29 10° SSW 22:17:49 40° W 22:22:25 10° NNW
USA 229 DEB 4.5 22:12:15 10° WSW 22:19:06 58° NW 22:26:03 10° NE
USA 229 4.5 22:12:21 10° WSW 22:19:11 58° NW 22:26:10 10° NE
COSMOS 2428 3.2 22:14:17 10° NW 22:19:51 57° WSW 22:25:19 10° S
Nadezhda 1 Rocket 4.2 22:15:46 10° N 22:21:44 55° ENE 22:26:56 14° SSE
Cosmos 2297 Rocket 3.4 22:21:13 14° SE 22:24:34 23° ESE 22:28:52 10° NE
Cosmos 1470 Rocket 4.2 22:22:50 14° SSE 22:26:06 39° E 22:30:07 10° NNE
Cosmos 1933 Rocket 4.2 22:23:55 14° SSE 22:27:18 39° E 22:31:29 10° NNE
Cosmos 2219 Rocket 2.2 22:22:01 10° NNW 22:27:39 88° ENE 22:32:19 15° SSE
ARGOS 3.3 22:22:34 10° S 22:27:57 74° WSW 22:33:22 10° NNW
Cosmos 1726 2.7 22:25:28 10° NNW 22:29:12 57° W 22:32:47 11° S
Cosmos 1869 4.2 22:25:28 10° N 22:29:14 36° ENE 22:31:52 17° SE
SL-08 R/B 4.5 22:29:57 10° S 22:36:08 76° E 22:42:27 10° NNE
Cosmos 1745 Rocket 4.0 22:31:50 10° S 22:38:00 68° E 22:44:08 10° NNE
NOSS 3-1 (A) 3.4 22:32:21 10° SSW 22:38:15 71° SE 22:44:54 10° NE
CZ-4C R/B 3.0 22:35:43 17° S 22:38:17 81° WSW 22:41:47 10° NNW
DMSP B5D2-2 4.5 22:33:27 10° NNE 22:38:28 44° E 22:42:20 16° SSE
ERBS 3.6 22:38:37 21° SSE 22:39:22 23° SE 22:42:10 10° ENE
Cosmos 292 Rocket 4.1 22:39:26 10° NNW 22:44:08 59° WSW 22:47:50 16° S
NOSS 0 Rocket 4.0 22:38:22 10° NNW 22:44:32 79° WSW 22:49:19 18° SSE
USA 32 4.2 22:40:13 10° N 22:45:29 72° W 22:50:15 13° S
Cosmos 1980 3.7 22:41:09 10° NNW 22:46:51 90° WSW 22:51:01 19° SSE
Cosmos 1271 Rocket 3.3 22:43:46 10° NNW 22:47:31 53° W 22:50:33 15° S
Landsat 7 4.0 22:44:50 16° S 22:48:40 72° WSW 22:53:27 10° NNW
Cosmos 1346 3.2 22:49:26 26° SSE 22:50:52 54° E 22:53:51 10° NNE
Meteor 1-4 Rocket 3.6 22:47:44 10° NNW 22:51:19 43° W 22:54:14 14° SSW
Cosmos 1703 3.4 22:52:05 12° SSW 22:55:37 71° W 22:59:33 10° N
Cosmos 2219 4.2 22:50:10 10° SW 22:55:43 49° NW 23:01:18 10° NNE
Cosmos 2237 Rocket 2.3 22:53:40 10° NNW 22:59:24 80° WSW 23:03:21 21° SSE
Iridium 2 4.0 22:57:22 15° SSW 23:00:29 66° W 23:04:20 10° N
ATLAS 2AS CENTAUR R/B 3.2 22:53:40 10° S 23:00:49 49° ESE 23:08:29 10° NE
Cosmos 1386 Rocket 4.4 22:57:20 15° S 23:02:20 76° E 23:08:22 10° NNE
Lacrosse 4 Rocket 2.2 22:58:55 10° NNW 23:03:13 48° NE 23:06:05 20° ESE
Cosmos 1862 Rocket 3.6 22:59:45 10° NNW 23:04:08 79° W 23:06:52 22° S
Terra 1.9 23:01:11 20° S 23:04:32 72° WSW 23:09:19 10° NNW
CZ-4C R/B 4.2 22:59:17 10° NNW 23:05:13 32° NNE 23:11:45 10° E
Cosmos 2082 3.7 23:01:36 12° SSW 23:06:52 64° ESE 23:12:33 10° NNE
Cosmos 1937 Rocket 3.7 23:02:57 10° SSW 23:08:11 75° WNW 23:13:24 10° NNE
Sich 1 4.4 23:04:08 10° SW 23:08:14 37° WNW 23:12:22 10° N
CARTOSAT-1 3.9 23:05:23 20° S 23:08:16 60° WSW 23:12:34 10° NNW
Spot 4 3.9 23:05:42 22° S 23:08:53 82° WSW 23:13:47 10° NNW
Cosmos 2181 Rocket 4.3 23:03:27 10° N 23:09:46 59° ENE 23:13:59 22° SSE
BREEZE-M DEB (TANK) 4.3 23:11:13 24° SE 23:11:52 25° ESE 23:17:57 10° ENE
Cosmos 1633 Rocket 4.5 23:08:05 10° SW 23:12:08 36° WNW 23:16:12 10° N
Cosmos 1626 2.1 23:10:26 22° S 23:12:44 85° W 23:16:32 10° N
ATLAS 3B R/B 2.7 23:06:29 10° NW 23:13:39 81° NE 23:18:29 20° SE
Cosmos 1900 4.3 23:10:55 10° NW 23:15:57 82° NE 23:18:50 25° SE
Cosmos 990 Rocket 4.0 23:13:44 10° SSW 23:18:49 83° WNW 23:24:01 10° NNE
Tiangong 1 2.9 23:20:19 10° SW 23:21:28 19° SW 23:21:28 19° SW
USA 238 DEB 4.3 23:16:21 10° NW 23:23:17 55° NE 23:29:27 13° ESE
USA 238 4.3 23:16:27 10° NW 23:23:22 54° NE 23:29:34 13° ESE
NOSS 3-1 (C) 4.3 23:19:08 10° WSW 23:25:03 55° NW 23:31:44 10° NE
FALCON 9 R/B 3.8 23:06:19 10° W 23:25:50 39° SSW 23:30:02 23° SSE
BREEZE-M DEB (TANK) 4.1 23:28:23 13° E 23:28:23 13° E 23:29:02 10° E
Cosmos 1933 3.3 23:24:53 10° N 23:28:58 83° E 23:30:44 33° SSE
Cosmos 1269 Rocket 4.0 23:26:40 10° NNW 23:32:01 82° WSW 23:34:54 28° SSE
COSMOS 2455 2.8 23:26:53 10° NW 23:32:57 82° WSW 23:36:29 26° SSE
H-2A R/B 3.1 23:29:19 16° SSW 23:33:12 40° W 23:38:19 10° NNW
H-2A R/B 4.1 23:32:04 10° NE 23:35:16 20° E 23:36:09 19° ESE
Cosmos 1869 Rocket 3.9 23:33:33 31° SSE 23:35:24 54° E 23:39:47 10° NNE
Cosmos 389 Rocket 2.9 23:33:26 10° N 23:36:57 49° ENE 23:37:58 36° SE
Cosmos 2227 Rocket 2.4 23:35:25 10° SW 23:41:04 72° WNW 23:46:46 10° NNE
CZ-4B R/B 3.1 23:44:29 21° E 23:45:35 25° ENE 23:48:26 10° NNE
Cosmos 1455 4.0 23:43:41 10° NW 23:46:47 24° W 23:48:54 15° SW
GEOS 3 Rocket 3.8 23:44:08 21° ESE 23:47:39 67° NE 23:52:48 10° NW
ALOS 2 3.4 23:46:38 26° ESE 23:48:36 41° ENE 23:52:44 10° N
SeaSat 1 2.4 23:49:07 30° SSE 23:51:36 87° ENE 23:56:34 10° NNW
Cosmos 2333 Rocket 3.6 23:47:14 10° NW 23:52:04 29° WSW 23:55:18 17° SSW
Cosmos 1340 Rocket 4.3 23:51:40 21° ESE 23:52:18 22° E 23:55:23 10° NE
SL-16 R/B 2.3 23:47:15 10° NNW 23:52:55 67° WSW 23:55:45 30° S
